NKS890 KBOS-KRDU

Flight info

Callsign NKS890
Flight time N/A
Altitude 38000
Route SSOXS7 SSOXS Q167 ZJAAY TAQLE2
Aircraft A20N/M-SDE2E3FGHIRWXY/LB1

Departure

Time 2026-05-07 00:28
Airport Boston Logan International Airport (KBOS)

Arrival

Time N/A
Airport Raleigh-Durham International Airport (KRDU)
Time Latitude Longitude Altitude Speed Heading
2026-05-06 23:44 42.36434 -71.01788 27 ft 0 kts 276°
2026-05-06 23:54 42.36434 -71.01786 26 ft 3 kts 276°
2026-05-06 23:54 42.36432 -71.01761 26 ft 3 kts 282°
2026-05-06 23:55 42.36421 -71.01743 31 ft 3 kts 349°
2026-05-06 23:55 42.36410 -71.01743 26 ft 0 kts 38°
2026-05-06 23:56 42.36421 -71.01730 32 ft 4 kts 42°
2026-05-06 23:56 42.36451 -71.01694 27 ft 6 kts 41°
2026-05-06 23:56 42.36470 -71.01653 29 ft 5 kts 83°
2026-05-06 23:57 42.36470 -71.01647 28 ft 0 kts 92°
2026-05-07 00:00 42.36467 -71.01637 26 ft 3 kts 107°
2026-05-07 00:00 42.36460 -71.01618 27 ft 4 kts 119°
2026-05-07 00:01 42.36433 -71.01554 26 ft 8 kts 121°
2026-05-07 00:01 42.36404 -71.01491 28 ft 8 kts 121°
2026-05-07 00:01 42.36390 -71.01429 26 ft 7 kts 72°
2026-05-07 00:01 42.36446 -71.01376 27 ft 13 kts 22°
2026-05-07 00:02 42.36524 -71.01330 27 ft 12 kts 25°
2026-05-07 00:02 42.36599 -71.01284 28 ft 11 kts 22°
2026-05-07 00:02 42.36663 -71.01260 30 ft 9 kts 15°
2026-05-07 00:02 42.36719 -71.01241 30 ft 0 kts 10°
2026-05-07 00:03 42.36740 -71.01239 29 ft 7 kts 358°
2026-05-07 00:03 42.36778 -71.01256 28 ft 0 kts 328°
2026-05-07 00:04 42.36781 -71.01259 28 ft 2 kts 328°
2026-05-07 00:04 42.36795 -71.01274 28 ft 4 kts 320°
2026-05-07 00:05 42.36832 -71.01280 27 ft 5 kts 25°
2026-05-07 00:05 42.36857 -71.01260 27 ft 3 kts 12°
2026-05-07 00:05 42.36876 -71.01262 27 ft 2 kts 347°
2026-05-07 00:05 42.36885 -71.01269 28 ft 3 kts 321°
2026-05-07 00:06 42.36925 -71.01324 29 ft 14 kts 315°
2026-05-07 00:06 42.36997 -71.01421 29 ft 15 kts 315°
2026-05-07 00:06 42.37067 -71.01515 31 ft 13 kts 315°
2026-05-07 00:06 42.37126 -71.01593 33 ft 11 kts 314°
2026-05-07 00:07 42.37192 -71.01613 32 ft 10 kts 34°
2026-05-07 00:07 42.37217 -71.01566 31 ft 9 kts 72°
2026-05-07 00:07 42.37202 -71.01482 33 ft 11 kts 128°
2026-05-07 00:07 42.37137 -71.01396 31 ft 16 kts 136°
2026-05-07 00:08 42.37083 -71.01326 30 ft 0 kts 136°
2026-05-07 00:11 42.37065 -71.01303 30 ft 6 kts 136°
2026-05-07 00:11 42.37042 -71.01273 30 ft 0 kts 136°
2026-05-07 00:15 42.37034 -71.01262 30 ft 7 kts 136°
2026-05-07 00:15 42.37003 -71.01222 29 ft 0 kts 136°
2026-05-07 00:19 42.36999 -71.01217 29 ft 4 kts 136°
2026-05-07 00:19 42.36969 -71.01147 28 ft 13 kts 85°
2026-05-07 00:20 42.37055 -71.01064 29 ft 18 kts 24°
2026-05-07 00:20 42.37169 -71.00989 26 ft 18 kts 26°
2026-05-07 00:20 42.37278 -71.00919 25 ft 18 kts 25°
2026-05-07 00:20 42.37391 -71.00862 25 ft 17 kts 20°
2026-05-07 00:21 42.37496 -71.00810 27 ft 15 kts 20°
2026-05-07 00:21 42.37592 -71.00763 28 ft 14 kts 20°
2026-05-07 00:21 42.37675 -71.00723 30 ft 11 kts 20°
2026-05-07 00:21 42.37680 -71.00721 31 ft 0 kts 19°
2026-05-07 00:22 42.37684 -71.00719 31 ft 1 kts 19°
2026-05-07 00:22 42.37699 -71.00712 31 ft 6 kts 19°
2026-05-07 00:22 42.37715 -71.00704 32 ft 0 kts 19°
2026-05-07 00:23 42.37716 -71.00704 32 ft 1 kts 19°
2026-05-07 00:23 42.37754 -71.00685 32 ft 11 kts 20°
2026-05-07 00:24 42.37818 -71.00652 32 ft 8 kts 29°
2026-05-07 00:24 42.37821 -71.00648 32 ft 0 kts 33°
2026-05-07 00:25 42.37822 -71.00648 32 ft 0 kts 33°
2026-05-07 00:26 42.37830 -71.00638 32 ft 3 kts 45°
2026-05-07 00:26 42.37841 -71.00602 31 ft 5 kts 86°
2026-05-07 00:26 42.37838 -71.00579 31 ft 0 kts 108°
2026-05-07 00:26 42.37837 -71.00577 31 ft 2 kts 108°
2026-05-07 00:27 42.37822 -71.00521 30 ft 9 kts 110°
2026-05-07 00:27 42.37774 -71.00482 29 ft 8 kts 189°
2026-05-07 00:27 42.37764 -71.00487 29 ft 0 kts 198°
2026-05-07 00:28 42.37625 -71.00553 30 ft 53 kts 200°
2026-05-07 00:28 42.37056 -71.00827 28 ft 118 kts 199°
2026-05-07 00:28 42.36214 -71.01202 389 ft 132 kts 199°
2026-05-07 00:28 42.35330 -71.01557 1037 ft 133 kts 194°
2026-05-07 00:29 42.34368 -71.01551 1699 ft 156 kts 175°
2026-05-07 00:29 42.33298 -71.00704 2087 ft 203 kts 146°
2026-05-07 00:30 42.31165 -70.94823 3016 ft 283 kts 86°
2026-05-07 00:30 42.31490 -70.92120 3000 ft 296 kts 79°
2026-05-07 00:30 42.31929 -70.89401 2994 ft 296 kts 78°
2026-05-07 00:30 42.32360 -70.86716 2988 ft 296 kts 78°
2026-05-07 00:31 42.32779 -70.83989 2995 ft 296 kts 79°
2026-05-07 00:31 42.33088 -70.81237 3049 ft 295 kts 92°
2026-05-07 00:31 42.32726 -70.78538 3591 ft 292 kts 114°
2026-05-07 00:31 42.31960 -70.76012 4585 ft 290 kts 117°
2026-05-07 00:32 42.31136 -70.73513 5517 ft 292 kts 119°
2026-05-07 00:32 42.30264 -70.71017 6450 ft 295 kts 122°
2026-05-07 00:32 42.29084 -70.68829 7347 ft 289 kts 145°
2026-05-07 00:32 42.27407 -70.67461 8295 ft 280 kts 165°
2026-05-07 00:33 42.25577 -70.66556 9247 ft 281 kts 169°
2026-05-07 00:33 42.23710 -70.65728 10167 ft 285 kts 170°
2026-05-07 00:33 42.21771 -70.64879 10678 ft 304 kts 170°
2026-05-07 00:33 42.19685 -70.63957 11093 ft 324 kts 169°
2026-05-07 00:34 42.17512 -70.62975 11794 ft 334 kts 169°
2026-05-07 00:34 42.15271 -70.62150 12653 ft 331 kts 178°
2026-05-07 00:34 42.13005 -70.62027 13580 ft 321 kts 193°
2026-05-07 00:34 42.10868 -70.62641 14365 ft 317 kts 202°
2026-05-07 00:35 42.08755 -70.63542 15152 ft 319 kts 204°
2026-05-07 00:35 42.06634 -70.64496 15950 ft 322 kts 204°
2026-05-07 00:35 42.04497 -70.65457 16745 ft 325 kts 204°
2026-05-07 00:35 42.02338 -70.66421 17528 ft 328 kts 204°
2026-05-07 00:36 42.00158 -70.67387 18272 ft 332 kts 204°
2026-05-07 00:36 41.97969 -70.68354 18869 ft 337 kts 204°
2026-05-07 00:36 41.95719 -70.69347 19378 ft 343 kts 205°
2026-05-07 00:36 41.93427 -70.70355 19959 ft 349 kts 205°
2026-05-07 00:37 41.91106 -70.71374 20555 ft 353 kts 205°
2026-05-07 00:37 41.88751 -70.72406 21148 ft 357 kts 206°
2026-05-07 00:37 41.86370 -70.73449 21711 ft 362 kts 206°
2026-05-07 00:37 41.83997 -70.74592 22270 ft 362 kts 211°
2026-05-07 00:38 41.81719 -70.76035 22846 ft 363 kts 214°
2026-05-07 00:38 41.79483 -70.77629 23414 ft 365 kts 217°
2026-05-07 00:38 41.77263 -70.79303 23875 ft 367 kts 218°
2026-05-07 00:38 41.75070 -70.80993 24420 ft 369 kts 218°
2026-05-07 00:39 41.72842 -70.82709 24970 ft 370 kts 218°
2026-05-07 00:39 41.70604 -70.84422 25493 ft 371 kts 218°
2026-05-07 00:39 41.68352 -70.86132 25995 ft 373 kts 218°
2026-05-07 00:39 41.66081 -70.87844 26482 ft 375 kts 218°
2026-05-07 00:40 41.63801 -70.89552 27044 ft 375 kts 218°
2026-05-07 00:40 41.61519 -70.91255 27520 ft 376 kts 219°
2026-05-07 00:40 41.59228 -70.92966 27925 ft 379 kts 219°
2026-05-07 00:40 41.56993 -70.94811 28329 ft 375 kts 224°
2026-05-07 00:41 41.54993 -70.96945 28758 ft 370 kts 230°
2026-05-07 00:41 41.53244 -70.99419 29164 ft 365 kts 237°
2026-05-07 00:41 41.51719 -71.02122 29593 ft 365 kts 240°
2026-05-07 00:41 41.50264 -71.04912 29982 ft 365 kts 241°
2026-05-07 00:42 41.48850 -71.07740 30313 ft 367 kts 242°
2026-05-07 00:42 41.47447 -71.10590 30734 ft 366 kts 242°
2026-05-07 00:42 41.46053 -71.13420 31192 ft 365 kts 242°
2026-05-07 00:42 41.44655 -71.16246 31568 ft 364 kts 242°
2026-05-07 00:43 41.43254 -71.19061 31920 ft 365 kts 243°
2026-05-07 00:43 41.41846 -71.21875 32313 ft 364 kts 243°
2026-05-07 00:43 41.40457 -71.24637 32725 ft 363 kts 243°
2026-05-07 00:43 41.39051 -71.27425 33135 ft 361 kts 243°
2026-05-07 00:44 41.37650 -71.30200 33528 ft 360 kts 243°
2026-05-07 00:44 41.36251 -71.32970 33894 ft 359 kts 243°
2026-05-07 00:44 41.34859 -71.35727 34220 ft 359 kts 243°
2026-05-07 00:44 41.33469 -71.38478 34528 ft 358 kts 243°
2026-05-07 00:45 41.32082 -71.41223 34839 ft 357 kts 244°
2026-05-07 00:45 41.30697 -71.43961 35134 ft 356 kts 244°
2026-05-07 00:45 41.29314 -71.46693 35429 ft 355 kts 244°
2026-05-07 00:45 41.27932 -71.49421 35711 ft 355 kts 244°
2026-05-07 00:46 41.26557 -71.52134 35984 ft 354 kts 244°
2026-05-07 00:46 41.25178 -71.54850 36253 ft 353 kts 244°
2026-05-07 00:46 41.23825 -71.57514 36567 ft 352 kts 244°
2026-05-07 00:46 41.22456 -71.60202 36896 ft 350 kts 244°
2026-05-07 00:47 41.21095 -71.62877 37150 ft 349 kts 244°
2026-05-07 00:47 41.19737 -71.65542 37379 ft 349 kts 244°
2026-05-07 00:47 41.18374 -71.68218 37612 ft 348 kts 244°
2026-05-07 00:47 41.17016 -71.70882 37820 ft 349 kts 244°
2026-05-07 00:48 41.14288 -71.76229 37835 ft 349 kts 245°
2026-05-07 00:48 41.11596 -71.81517 37869 ft 347 kts 245°
2026-05-07 00:49 41.08895 -71.86828 37869 ft 347 kts 245°
2026-05-07 00:49 41.06185 -71.92149 37880 ft 347 kts 245°
2026-05-07 00:50 41.03572 -71.97499 37868 ft 341 kts 249°
2026-05-07 00:50 41.01475 -72.03064 37869 ft 339 kts 251°
2026-05-07 00:51 40.99480 -72.08703 37872 ft 338 kts 252°
2026-05-07 00:51 40.97501 -72.14358 37875 ft 338 kts 252°
2026-05-07 00:52 40.95518 -72.19993 37887 ft 338 kts 252°
2026-05-07 00:52 40.93860 -72.24679 37887 ft 338 kts 252°
2026-05-07 00:53 40.91229 -72.31058 37887 ft 346 kts 243°
2026-05-07 00:53 40.88004 -72.35919 37887 ft 355 kts 237°
2026-05-07 00:54 40.84495 -72.40539 37886 ft 357 kts 236°
2026-05-07 00:54 40.80922 -72.45117 37886 ft 358 kts 234°
2026-05-07 00:55 40.77124 -72.49407 37887 ft 362 kts 232°
2026-05-07 00:55 40.73229 -72.53643 37887 ft 363 kts 232°
2026-05-07 00:56 40.69957 -72.57173 37886 ft 363 kts 232°
2026-05-07 00:56 40.66142 -72.61432 37906 ft 360 kts 233°
2026-05-07 00:57 40.62382 -72.65764 37895 ft 358 kts 234°
2026-05-07 00:57 40.58642 -72.70089 37888 ft 357 kts 234°
2026-05-07 00:58 40.54899 -72.74399 37888 ft 358 kts 234°
2026-05-07 00:58 40.51164 -72.78680 37888 ft 358 kts 234°
2026-05-07 00:59 40.45519 -72.85130 37886 ft 358 kts 234°
2026-05-07 01:00 40.41779 -72.89397 37891 ft 358 kts 234°
2026-05-07 01:00 40.38009 -72.93692 37895 ft 358 kts 234°
2026-05-07 01:01 40.34242 -72.97974 37884 ft 357 kts 234°
2026-05-07 01:01 40.30510 -73.02209 37886 ft 357 kts 234°
2026-05-07 01:02 40.26757 -73.06465 37884 ft 357 kts 234°
2026-05-07 01:02 40.22991 -73.10731 37882 ft 358 kts 234°
2026-05-07 01:03 40.19225 -73.14989 37883 ft 358 kts 234°
2026-05-07 01:03 40.15452 -73.19245 37889 ft 357 kts 234°
2026-05-07 01:04 40.11705 -73.23467 37849 ft 357 kts 234°
2026-05-07 01:04 40.07926 -73.27719 37890 ft 358 kts 234°
2026-05-07 01:05 40.04145 -73.31960 37903 ft 358 kts 234°
2026-05-07 01:05 40.00366 -73.36186 37895 ft 357 kts 234°
2026-05-07 01:06 39.96600 -73.40395 37896 ft 356 kts 234°
2026-05-07 01:06 39.92855 -73.44577 37857 ft 356 kts 234°
2026-05-07 01:07 39.89081 -73.48788 37902 ft 358 kts 234°
2026-05-07 01:07 39.85292 -73.53008 37899 ft 358 kts 234°
2026-05-07 01:08 39.81516 -73.57209 37898 ft 358 kts 234°
2026-05-07 01:08 39.77720 -73.61433 37902 ft 358 kts 234°
2026-05-07 01:09 39.73925 -73.65651 37892 ft 358 kts 234°
2026-05-07 01:09 39.70129 -73.69866 37901 ft 360 kts 234°
2026-05-07 01:10 39.66322 -73.74083 37901 ft 360 kts 234°
2026-05-07 01:10 39.62537 -73.78269 37901 ft 360 kts 234°
2026-05-07 01:11 39.58720 -73.82485 37901 ft 360 kts 234°
2026-05-07 01:11 39.54901 -73.86696 37898 ft 360 kts 234°
2026-05-07 01:12 39.51087 -73.90897 37904 ft 360 kts 234°
2026-05-07 01:12 39.47266 -73.95098 37898 ft 360 kts 234°
2026-05-07 01:13 39.43478 -73.99258 37902 ft 360 kts 234°
2026-05-07 01:13 39.39654 -74.03448 37904 ft 359 kts 234°
2026-05-07 01:14 39.35850 -74.07604 37891 ft 358 kts 234°
2026-05-07 01:14 39.32024 -74.11790 37898 ft 361 kts 234°
2026-05-07 01:15 39.28180 -74.15982 37900 ft 362 kts 234°
2026-05-07 01:15 39.24351 -74.20146 37899 ft 362 kts 234°
2026-05-07 01:16 39.20498 -74.24332 37898 ft 362 kts 234°
2026-05-07 01:16 39.16644 -74.28515 37872 ft 362 kts 234°
2026-05-07 01:17 39.12758 -74.32736 37901 ft 366 kts 233°
2026-05-07 01:17 39.08872 -74.36939 37900 ft 367 kts 233°
2026-05-07 01:18 39.05737 -74.40540 37894 ft 349 kts 244°
2026-05-07 01:18 39.04457 -74.44108 37899 ft 319 kts 267°
2026-05-07 01:18 39.04560 -74.46909 37898 ft 314 kts 284°
2026-05-07 01:18 39.05533 -74.49406 37901 ft 325 kts 301°
2026-05-07 01:19 39.07304 -74.51350 37899 ft 350 kts 319°
2026-05-07 01:19 39.09689 -74.52451 37895 ft 379 kts 333°
2026-05-07 01:19 39.12335 -74.52971 37894 ft 390 kts 337°
2026-05-07 01:20 39.17764 -74.53762 37888 ft 393 kts 338°
2026-05-07 01:20 39.23227 -74.54529 37912 ft 395 kts 338°
2026-05-07 01:21 39.28666 -74.55219 37877 ft 395 kts 338°
2026-05-07 01:21 39.34141 -74.55906 37881 ft 395 kts 338°
2026-05-07 01:22 39.39610 -74.56593 37895 ft 395 kts 338°
2026-05-07 01:22 39.45084 -74.57275 37932 ft 395 kts 338°
2026-05-07 01:23 39.50564 -74.57906 37898 ft 395 kts 338°
2026-05-07 01:23 39.56046 -74.58527 37896 ft 395 kts 338°
2026-05-07 01:24 39.61489 -74.59144 37890 ft 395 kts 338°
2026-05-07 01:24 39.66989 -74.59720 37881 ft 404 kts 343°
2026-05-07 01:24 39.69894 -74.59186 37878 ft 442 kts
2026-05-07 01:25 39.72800 -74.57464 37875 ft 478 kts 18°
2026-05-07 01:25 39.75446 -74.54599 37862 ft 511 kts 34°
2026-05-07 01:25 39.77586 -74.50853 37410 ft 534 kts 51°
2026-05-07 01:25 39.79068 -74.46341 36737 ft 554 kts 69°
2026-05-07 01:26 39.79712 -74.41346 36063 ft 564 kts 87°
2026-05-07 01:26 39.79439 -74.36272 35447 ft 563 kts 104°
2026-05-07 01:26 39.78341 -74.31426 34934 ft 554 kts 115°
2026-05-07 01:26 39.76943 -74.26774 34478 ft 550 kts 117°
2026-05-07 01:27 39.75517 -74.22172 33960 ft 549 kts 118°
2026-05-07 01:27 39.74094 -74.17567 33365 ft 548 kts 117°
2026-05-07 01:27 39.72675 -74.12973 32726 ft 547 kts 117°
2026-05-07 01:27 39.71272 -74.08439 32165 ft 548 kts 117°
2026-05-07 01:28 39.69843 -74.03831 31929 ft 552 kts 117°
2026-05-07 01:28 39.66943 -73.94553 31891 ft 554 kts 117°
2026-05-07 01:29 39.64024 -73.85291 31895 ft 554 kts 117°
2026-05-07 01:29 39.61108 -73.76023 31898 ft 554 kts 117°
2026-05-07 01:30 39.58216 -73.66819 31899 ft 554 kts 117°
2026-05-07 01:30 39.55293 -73.57602 31906 ft 551 kts 117°
2026-05-07 01:31 39.52363 -73.48422 31914 ft 550 kts 117°
2026-05-07 01:31 39.49438 -73.39253 31913 ft 550 kts 117°
2026-05-07 01:32 39.46518 -73.30088 31910 ft 550 kts 117°
2026-05-07 01:32 39.43595 -73.20991 31915 ft 549 kts 117°
2026-05-07 01:33 39.40659 -73.11874 31926 ft 548 kts 117°
2026-05-07 01:33 39.37725 -73.02750 31925 ft 549 kts 117°
2026-05-07 01:34 39.34753 -72.93762 31920 ft 545 kts 122°
2026-05-07 01:34 39.32690 -72.89754 31921 ft 528 kts 139°
2026-05-07 01:34 39.30030 -72.86641 31921 ft 505 kts 156°
2026-05-07 01:34 39.26991 -72.84604 31938 ft 480 kts 173°
2026-05-07 01:35 39.23822 -72.83737 31922 ft 451 kts 189°
2026-05-07 01:35 39.20807 -72.84037 31921 ft 423 kts 206°
2026-05-07 01:35 39.18168 -72.85400 31909 ft 398 kts 221°
2026-05-07 01:36 39.13709 -72.89513 31936 ft 394 kts 227°
2026-05-07 01:36 39.09351 -72.93810 31938 ft 394 kts 227°
2026-05-07 01:37 39.05024 -72.98070 31935 ft 392 kts 227°
2026-05-07 01:37 39.01024 -73.02655 31935 ft 372 kts 244°
2026-05-07 01:37 38.99928 -73.05592 31912 ft 362 kts 255°
2026-05-07 01:38 38.99159 -73.08675 31935 ft 363 kts 257°
2026-05-07 01:38 38.97722 -73.14916 31939 ft 365 kts 257°
2026-05-07 01:39 38.96294 -73.21173 31938 ft 365 kts 257°
2026-05-07 01:39 38.94870 -73.27436 31932 ft 365 kts 257°
2026-05-07 01:40 38.93467 -73.33653 31933 ft 363 kts 257°
2026-05-07 01:40 38.92079 -73.39874 31935 ft 362 kts 257°
2026-05-07 01:41 38.90694 -73.46098 31934 ft 362 kts 257°
2026-05-07 01:41 38.89319 -73.52290 31932 ft 362 kts 257°
2026-05-07 01:42 38.87938 -73.58521 31930 ft 362 kts 257°
2026-05-07 01:42 38.86565 -73.64749 31911 ft 362 kts 257°
2026-05-07 01:43 38.85234 -73.70939 31931 ft 362 kts 257°
2026-05-07 01:43 38.83915 -73.77187 31932 ft 362 kts 257°
2026-05-07 01:44 38.82828 -73.82350 31928 ft 362 kts 257°
2026-05-07 01:44 38.81168 -73.89555 31929 ft 364 kts 252°
2026-05-07 01:45 38.79245 -73.94450 31922 ft 369 kts 245°
2026-05-07 01:45 38.76585 -74.00035 31923 ft 370 kts 244°
2026-05-07 01:46 38.73880 -74.05620 31927 ft 367 kts 244°
2026-05-07 01:46 38.70759 -74.12058 31884 ft 366 kts 244°
2026-05-07 01:47 38.68488 -74.16740 31924 ft 372 kts 244°
2026-05-07 01:47 38.65765 -74.22338 31919 ft 373 kts 243°
2026-05-07 01:48 38.63015 -74.27981 31919 ft 373 kts 243°
2026-05-07 01:48 38.60267 -74.33611 31925 ft 373 kts 243°
2026-05-07 01:49 38.57523 -74.39222 31921 ft 370 kts 243°
2026-05-07 01:49 38.54821 -74.44736 31912 ft 367 kts 243°
2026-05-07 01:50 38.52106 -74.50273 31907 ft 369 kts 243°
2026-05-07 01:50 38.49371 -74.55842 31908 ft 370 kts 243°
2026-05-07 01:51 38.46626 -74.61419 31910 ft 371 kts 243°
2026-05-07 01:51 38.43880 -74.66987 31900 ft 370 kts 243°
2026-05-07 01:51 38.42506 -74.69768 31709 ft 368 kts 243°
2026-05-07 01:52 38.41159 -74.72493 31098 ft 367 kts 242°
2026-05-07 01:52 38.39790 -74.75263 30411 ft 369 kts 242°
2026-05-07 01:52 38.38420 -74.78031 29751 ft 369 kts 242°
2026-05-07 01:52 38.37054 -74.80788 29091 ft 367 kts 242°
2026-05-07 01:53 38.35688 -74.83540 28451 ft 365 kts 242°
2026-05-07 01:53 38.34327 -74.86283 27656 ft 368 kts 242°
2026-05-07 01:53 38.32960 -74.89036 27022 ft 367 kts 242°
2026-05-07 01:53 38.31599 -74.91771 26531 ft 364 kts 242°
2026-05-07 01:54 38.30250 -74.94479 26025 ft 360 kts 242°
2026-05-07 01:54 38.28931 -74.97128 25525 ft 357 kts 243°
2026-05-07 01:54 38.27604 -74.99790 25015 ft 355 kts 243°
2026-05-07 01:54 38.26281 -75.02441 24535 ft 353 kts 243°
2026-05-07 01:55 38.24970 -75.05067 24115 ft 349 kts 243°
2026-05-07 01:55 38.23669 -75.07672 23954 ft 348 kts 243°
2026-05-07 01:55 38.22371 -75.10269 23916 ft 347 kts 243°
2026-05-07 01:55 38.21088 -75.12836 23915 ft 347 kts 243°
2026-05-07 01:56 38.19801 -75.15408 23913 ft 346 kts 243°
2026-05-07 01:56 38.18506 -75.17992 23912 ft 346 kts 243°
2026-05-07 01:56 38.17212 -75.20573 23906 ft 347 kts 243°
2026-05-07 01:56 38.15913 -75.23163 23910 ft 348 kts 243°
2026-05-07 01:57 38.14609 -75.25760 23907 ft 349 kts 243°
2026-05-07 01:57 38.13300 -75.28362 23907 ft 349 kts 243°
2026-05-07 01:57 38.11990 -75.30966 23906 ft 349 kts 243°
2026-05-07 01:57 38.10681 -75.33565 23904 ft 349 kts 243°
2026-05-07 01:58 38.09372 -75.36163 23900 ft 349 kts 243°
2026-05-07 01:58 38.08079 -75.38726 23899 ft 349 kts 243°
2026-05-07 01:58 38.06766 -75.41327 23898 ft 349 kts 243°
2026-05-07 01:58 38.05364 -75.43854 23903 ft 352 kts 237°
2026-05-07 01:59 38.03690 -75.46150 23898 ft 355 kts 231°
2026-05-07 01:59 38.01898 -75.48293 23901 ft 356 kts 230°
2026-05-07 01:59 38.00076 -75.50418 23898 ft 355 kts 230°
2026-05-07 01:59 37.98248 -75.52546 23879 ft 356 kts 230°
2026-05-07 02:00 37.96421 -75.54678 23930 ft 357 kts 230°
2026-05-07 02:00 37.94591 -75.56815 23923 ft 357 kts 230°
2026-05-07 02:00 37.92763 -75.58949 23925 ft 358 kts 230°
2026-05-07 02:00 37.90954 -75.61060 23914 ft 358 kts 230°
2026-05-07 02:01 37.89125 -75.63195 23913 ft 358 kts 230°
2026-05-07 02:01 37.87298 -75.65326 23913 ft 358 kts 230°
2026-05-07 02:01 37.85467 -75.67462 23915 ft 358 kts 230°
2026-05-07 02:01 37.83637 -75.69595 23919 ft 358 kts 230°
2026-05-07 02:02 37.81807 -75.71726 23920 ft 358 kts 230°
2026-05-07 02:02 37.79972 -75.73862 23924 ft 358 kts 230°
2026-05-07 02:02 37.78137 -75.75995 23903 ft 358 kts 229°
2026-05-07 02:02 37.76299 -75.78133 23921 ft 359 kts 229°
2026-05-07 02:03 37.74460 -75.80269 23929 ft 359 kts 229°
2026-05-07 02:03 37.72620 -75.82403 23925 ft 359 kts 229°
2026-05-07 02:03 37.70778 -75.84540 23925 ft 359 kts 229°
2026-05-07 02:03 37.68936 -75.86674 23925 ft 359 kts 229°
2026-05-07 02:04 37.67094 -75.88807 23924 ft 359 kts 229°
2026-05-07 02:04 37.65273 -75.90915 23924 ft 359 kts 229°
2026-05-07 02:04 37.63431 -75.93046 23925 ft 359 kts 229°
2026-05-07 02:04 37.61590 -75.95180 23918 ft 359 kts 230°
2026-05-07 02:05 37.59886 -75.97447 23917 ft 354 kts 235°
2026-05-07 02:05 37.58310 -75.99835 23918 ft 353 kts 236°
2026-05-07 02:05 37.56763 -76.02244 23920 ft 353 kts 237°
2026-05-07 02:05 37.55221 -76.04652 23921 ft 353 kts 237°
2026-05-07 02:06 37.53676 -76.07059 23927 ft 353 kts 237°
2026-05-07 02:06 37.52126 -76.09469 23924 ft 353 kts 237°
2026-05-07 02:06 37.50578 -76.11872 23926 ft 353 kts 237°
2026-05-07 02:06 37.49028 -76.14276 23927 ft 353 kts 236°
2026-05-07 02:07 37.47496 -76.16645 23929 ft 353 kts 237°
2026-05-07 02:07 37.44397 -76.21441 23928 ft 353 kts 237°
2026-05-07 02:07 37.42845 -76.23839 23924 ft 353 kts 237°
2026-05-07 02:08 37.41301 -76.26224 23920 ft 353 kts 237°
2026-05-07 02:08 37.39745 -76.28626 23919 ft 353 kts 237°
2026-05-07 02:08 37.38193 -76.31019 23906 ft 353 kts 236°
2026-05-07 02:08 37.36654 -76.33392 23921 ft 355 kts 236°
2026-05-07 02:09 37.35085 -76.35808 23922 ft 356 kts 236°
2026-05-07 02:09 37.33522 -76.38211 23914 ft 356 kts 236°
2026-05-07 02:09 37.31955 -76.40620 23915 ft 356 kts 236°
2026-05-07 02:09 37.30380 -76.43039 23920 ft 356 kts 236°
2026-05-07 02:10 37.28809 -76.45451 23920 ft 356 kts 236°
2026-05-07 02:10 37.27240 -76.47858 23920 ft 356 kts 236°
2026-05-07 02:10 37.25676 -76.50272 23932 ft 356 kts 237°
2026-05-07 02:10 37.24144 -76.52661 23937 ft 354 kts 237°
2026-05-07 02:11 37.22605 -76.55064 23916 ft 353 kts 237°
2026-05-07 02:11 37.21068 -76.57464 23915 ft 352 kts 237°
2026-05-07 02:11 37.19530 -76.59863 23916 ft 352 kts 237°
2026-05-07 02:11 37.17991 -76.62266 23906 ft 354 kts 236°
2026-05-07 02:12 37.16444 -76.64678 23917 ft 356 kts 236°
2026-05-07 02:12 37.14887 -76.67101 23910 ft 357 kts 236°
2026-05-07 02:12 37.13337 -76.69511 23914 ft 358 kts 236°
2026-05-07 02:12 37.11772 -76.71941 23915 ft 358 kts 236°
2026-05-07 02:13 37.10211 -76.74366 23915 ft 358 kts 236°
2026-05-07 02:13 37.08649 -76.76789 23917 ft 358 kts 236°
2026-05-07 02:13 37.07083 -76.79218 23918 ft 358 kts 236°
2026-05-07 02:13 37.05519 -76.81641 23919 ft 357 kts 236°
2026-05-07 02:14 37.03956 -76.84062 23921 ft 357 kts 236°